Flag for Germany Weather past 2 weeks in Dresden, Saxony, Germany

Now
59 °F

Rain. More clouds than sun.


Feels Like: 59 °F
Forecast: 55 / 62 °F
Wind: 5 mph from Southwest

Location: Dresden-Klotzsche

Current Time: Aug 31, 2014 at 11:02:14 AM

Latest Report: Aug 31, 2014 at 10:20 AM


Visibility: 5 mi

Pressure: 29.95 "Hg

Humidity: 94%

Dew point: 57 °F

Location of DresdenLocation

Historic Weather in Dresden — Graph

°F

Dresden temperature yesterday

Maximum temperature yesterday: 72 °F (at 2:20 PM)
Minimum temperature yesterday: 55 °F (at 3:20 AM)
Average temperature yesterday: 63 °F

Past Weeks' High & Low Weather Summary

 TemperatureHumidityPressure
High73 °F (Aug 29, 12:50 PM)100% (Aug 27, 1:50 AM)30.09 "Hg (Aug 27, 1:50 AM)
Low46 °F (Aug 25, 2:50 AM)31% (Aug 28, 4:50 PM)29.71 "Hg (Aug 18, 1:50 PM)
Average59 °F70%29.94 "Hg
* Reported Aug 16 9:20 AM — Aug 31 9:50 AM, Dresden, Weather by CustomWeather, © 2014

Note: Actual official high and low records may vary slightly from our data, if they occured in-between our weather recording intervals... More about our weather records

Advertising

Dresden weather history for previous 24 hours

 ConditionsComfort  
Time TempWeatherWind HumidityBarometerVisibility
9:50 AM
Aug 31
59 °FLight rain. Broken clouds.6 mph94%29.95 "HgN/A
9:20 AM59 °FLight rain. More clouds than sun.5 mph94%29.95 "HgN/A
8:50 AM59 °FLight rain. More clouds than sun.6 mph94%29.95 "HgN/A
8:20 AM59 °FLight rain. More clouds than sun.6 mph94%29.95 "HgN/A
7:50 AM59 °FLight rain. More clouds than sun.3 mph94%29.95 "HgN/A
7:20 AM59 °FLight rain. More clouds than sun.2 mph88%29.95 "HgN/A
6:50 AM59 °FLight rain. Mostly cloudy.3 mph88%29.95 "HgN/A
6:20 AM59 °FLight rain. Passing clouds.5 mph88%29.95 "HgN/A
5:50 AM59 °FLight rain. Passing clouds.6 mph88%29.95 "HgN/A
5:20 AM59 °FPartly cloudy.5 mph88%29.95 "HgN/A
4:50 AM59 °FPartly cloudy.3 mph88%29.95 "HgN/A
4:20 AM59 °FPartly cloudy.5 mph88%29.98 "HgN/A
3:50 AM59 °FLight rain. Clear.5 mph88%29.98 "HgN/A
3:20 AM59 °FClear.5 mph88%29.98 "Hg10 mi
2:50 AM61 °FLight rain. Passing clouds.5 mph83%30.01 "HgN/A
2:20 AM61 °FLight rain. Partly cloudy.2 mph77%30.01 "HgN/A
1:50 AM61 °FLight rain. Partly cloudy.5 mph77%30.01 "HgN/A
1:20 AM61 °FClear.5 mph77%30.01 "Hg10 mi
12:50 AM61 °FClear.3 mph77%30.01 "Hg10 mi
12:20 AM61 °FPartly cloudy.5 mph77%30.01 "HgN/A
11:50 PM
Aug 30
61 °FPartly cloudy.6 mph77%30.01 "HgN/A
11:20 PM63 °FClear.5 mph73%30.01 "Hg10 mi
10:50 PM63 °FClear.6 mph73%30.01 "Hg10 mi
10:20 PM64 °FClear.3 mph68%30.01 "Hg10 mi
9:50 PM64 °FClear.3 mph68%30.01 "Hg10 mi
9:20 PM64 °FClear.3 mph64%30.01 "Hg10 mi
8:50 PM64 °FSunny.2 mph64%30.04 "Hg10 mi
8:20 PM66 °FSunny.No wind60%30.01 "Hg10 mi
7:20 PM68 °FSunny.5 mph56%30.01 "Hg10 mi
6:50 PM70 °FSunny.5 mph53%30.01 "Hg10 mi
6:20 PM68 °FSunny.3 mph60%30.01 "Hg10 mi
5:50 PM68 °FLight rain. Broken clouds.8 mph60%30.01 "HgN/A
5:20 PM70 °FBroken clouds.8 mph50%30.01 "HgN/A
4:50 PM70 °FBroken clouds.7 mph50%30.01 "HgN/A
4:20 PM72 °FBroken clouds.7 mph50%30.01 "HgN/A
3:50 PM70 °FBroken clouds.7 mph50%30.01 "HgN/A
3:20 PM72 °FSunny.7 mph44%30.04 "Hg10 mi
2:50 PM72 °FPartly sunny.8 mph44%30.04 "HgN/A
2:20 PM72 °FPartly sunny.9 mph47%30.04 "HgN/A
1:50 PM70 °FScattered clouds.10 mph50%30.04 "HgN/A
1:20 PM70 °FScattered clouds.9 mph57%30.04 "HgN/A
12:50 PM70 °FScattered clouds.8 mph60%30.04 "HgN/A
12:20 PM68 °FBroken clouds.7 mph69%30.07 "HgN/A
11:50 AM66 °FBroken clouds.6 mph78%30.07 "HgN/A
11:20 AM64 °FPartly sunny.8 mph78%30.07 "HgN/A
Weather by CustomWeather, © 2014

See weather overviewHow to use our weather pages